Year,Month,Day,Hour,Minute,Value (Times are PST for temperature in C)
2010,03,19,00,00,2.70
2010,03,19,00,01,2.70
2010,03,19,00,02,2.70
2010,03,19,00,03,2.70
2010,03,19,00,04,2.70
2010,03,19,00,05,2.70
2010,03,19,00,06,2.70
2010,03,19,00,07,2.70
2010,03,19,00,08,2.70
2010,03,19,00,09,2.70
2010,03,19,00,10,2.70
2010,03,19,00,11,2.70
2010,03,19,00,12,2.70
2010,03,19,00,13,2.70
2010,03,19,00,14,2.70
2010,03,19,00,15,2.70
2010,03,19,00,16,2.70
2010,03,19,00,17,2.70
2010,03,19,00,18,2.70
2010,03,19,00,19,2.80
2010,03,19,00,20,2.80
2010,03,19,00,21,2.80
2010,03,19,00,22,2.80
2010,03,19,00,23,2.90
2010,03,19,00,24,2.90
2010,03,19,00,25,2.90
2010,03,19,00,26,2.90
2010,03,19,00,27,3.00
2010,03,19,00,28,3.00
2010,03,19,00,29,3.00
2010,03,19,00,30,3.00
2010,03,19,00,31,3.10
2010,03,19,00,32,3.10
2010,03,19,00,33,3.00
2010,03,19,00,34,3.00
2010,03,19,00,35,3.00
2010,03,19,00,36,3.00
2010,03,19,00,37,3.00
2010,03,19,00,38,2.90
2010,03,19,00,39,2.90
2010,03,19,00,40,2.90
2010,03,19,00,41,2.90
2010,03,19,00,42,2.90
2010,03,19,00,43,2.90
2010,03,19,00,44,2.80
2010,03,19,00,45,2.80
2010,03,19,00,46,2.80
2010,03,19,00,47,2.90
2010,03,19,00,48,2.90
2010,03,19,00,49,2.90
2010,03,19,00,50,2.90
2010,03,19,00,51,2.90
2010,03,19,00,52,2.80
2010,03,19,00,53,2.80
2010,03,19,00,54,2.80
2010,03,19,00,55,2.80
2010,03,19,00,56,2.80
2010,03,19,00,57,2.80
2010,03,19,00,58,2.80
2010,03,19,00,59,2.80
2010,03,19,01,00,2.80
2010,03,19,01,01,2.80
2010,03,19,01,02,2.80
2010,03,19,01,03,2.80
2010,03,19,01,04,2.80
2010,03,19,01,05,2.80
2010,03,19,01,06,2.80
2010,03,19,01,07,2.90
2010,03,19,01,08,2.90
2010,03,19,01,09,2.90
2010,03,19,01,10,2.90
2010,03,19,01,11,2.90
2010,03,19,01,12,2.90
2010,03,19,01,13,2.90
2010,03,19,01,14,2.90
2010,03,19,01,15,2.90
2010,03,19,01,16,2.90
2010,03,19,01,17,2.90
2010,03,19,01,18,2.90
2010,03,19,01,19,2.90
2010,03,19,01,20,2.90
2010,03,19,01,21,2.90
2010,03,19,01,22,2.90
2010,03,19,01,23,2.90
2010,03,19,01,24,3.00
2010,03,19,01,25,3.00
2010,03,19,01,26,3.00
2010,03,19,01,27,3.00
2010,03,19,01,28,3.00
2010,03,19,01,29,3.00
2010,03,19,01,30,3.00
2010,03,19,01,31,3.00
2010,03,19,01,32,3.00
2010,03,19,01,33,3.00
2010,03,19,01,34,3.00
2010,03,19,01,35,2.90
2010,03,19,01,36,2.90
2010,03,19,01,37,2.90
2010,03,19,01,38,2.90
2010,03,19,01,39,2.80
2010,03,19,01,40,2.80
2010,03,19,01,41,2.80
2010,03,19,01,42,2.80
2010,03,19,01,43,2.70
2010,03,19,01,44,2.70
2010,03,19,01,45,2.70
2010,03,19,01,46,2.70
2010,03,19,01,47,2.70
2010,03,19,01,48,2.70
2010,03,19,01,49,2.70
2010,03,19,01,50,2.60
2010,03,19,01,51,2.60
2010,03,19,01,52,2.60
2010,03,19,01,53,2.60
2010,03,19,01,54,2.70
2010,03,19,01,55,2.70
2010,03,19,01,56,2.70
2010,03,19,01,57,2.70
2010,03,19,01,58,2.80
2010,03,19,01,59,2.90
2010,03,19,02,00,2.90
2010,03,19,02,01,3.00
2010,03,19,02,02,3.10
2010,03,19,02,03,3.10
2010,03,19,02,04,3.20
2010,03,19,02,05,3.20
2010,03,19,02,06,3.20
2010,03,19,02,07,3.20
2010,03,19,02,08,3.30
2010,03,19,02,09,3.30
2010,03,19,02,10,3.30
2010,03,19,02,11,3.30
2010,03,19,02,12,3.30
2010,03,19,02,13,3.40
2010,03,19,02,14,3.40
2010,03,19,02,15,3.40
2010,03,19,02,16,3.40
2010,03,19,02,17,3.40
2010,03,19,02,18,3.40
2010,03,19,02,19,3.40
2010,03,19,02,20,3.50
2010,03,19,02,21,3.50
2010,03,19,02,22,3.50
2010,03,19,02,23,3.60
2010,03,19,02,24,3.60
2010,03,19,02,25,3.60
2010,03,19,02,26,3.60
2010,03,19,02,27,3.60
2010,03,19,02,28,3.70
2010,03,19,02,29,3.70
2010,03,19,02,30,3.70
2010,03,19,02,31,3.70
2010,03,19,02,32,3.70
2010,03,19,02,33,3.80
2010,03,19,02,34,3.80
2010,03,19,02,35,3.80
2010,03,19,02,36,3.80
2010,03,19,02,37,3.80
2010,03,19,02,38,3.80
2010,03,19,02,39,3.80
2010,03,19,02,40,3.80
2010,03,19,02,41,3.80
2010,03,19,02,42,3.80
2010,03,19,02,43,3.70
2010,03,19,02,44,3.70
2010,03,19,02,45,3.70
2010,03,19,02,46,3.60
2010,03,19,02,47,3.60
2010,03,19,02,48,3.60
2010,03,19,02,49,3.60
2010,03,19,02,50,3.60
2010,03,19,02,51,3.60
2010,03,19,02,52,3.50
2010,03,19,02,53,3.50
2010,03,19,02,54,3.50
2010,03,19,02,55,3.50
2010,03,19,02,56,3.50
2010,03,19,02,57,3.50
2010,03,19,02,58,3.50
2010,03,19,02,59,3.50
2010,03,19,03,00,3.50
2010,03,19,03,01,3.50
2010,03,19,03,02,3.60
2010,03,19,03,03,3.60
2010,03,19,03,04,3.60
2010,03,19,03,05,3.60
2010,03,19,03,06,3.70
2010,03,19,03,07,3.70
2010,03,19,03,08,3.70
2010,03,19,03,09,3.70
2010,03,19,03,10,3.80
2010,03,19,03,11,3.80
2010,03,19,03,12,3.80
2010,03,19,03,13,3.80
2010,03,19,03,14,3.90
2010,03,19,03,15,3.90
2010,03,19,03,16,3.90
2010,03,19,03,17,3.90
2010,03,19,03,18,4.00
2010,03,19,03,19,4.00
2010,03,19,03,20,4.00
2010,03,19,03,21,4.10
2010,03,19,03,22,4.10
2010,03,19,03,23,4.10
2010,03,19,03,24,4.10
2010,03,19,03,25,4.00
2010,03,19,03,26,4.00
2010,03,19,03,27,4.00
2010,03,19,03,28,4.00
2010,03,19,03,29,3.90
2010,03,19,03,30,3.90
2010,03,19,03,31,3.90
2010,03,19,03,32,3.90
2010,03,19,03,33,3.90
2010,03,19,03,34,3.80
2010,03,19,03,35,3.80
2010,03,19,03,36,3.80
2010,03,19,03,37,3.80
2010,03,19,03,38,3.80
2010,03,19,03,39,3.80
2010,03,19,03,40,3.80
2010,03,19,03,41,3.70
2010,03,19,03,42,3.70
2010,03,19,03,43,3.70
2010,03,19,03,44,3.70
2010,03,19,03,45,3.60
2010,03,19,03,46,3.60
2010,03,19,03,47,3.60
2010,03,19,03,48,3.50
2010,03,19,03,49,3.50
2010,03,19,03,50,3.50
2010,03,19,03,51,3.50
2010,03,19,03,52,3.40
2010,03,19,03,53,3.40
2010,03,19,03,54,3.40
2010,03,19,03,55,3.40
2010,03,19,03,56,3.40
2010,03,19,03,57,3.40
2010,03,19,03,58,3.40
2010,03,19,03,59,3.40
2010,03,19,04,00,3.40
2010,03,19,04,01,3.40
2010,03,19,04,02,3.40
2010,03,19,04,03,3.40
2010,03,19,04,04,3.40
2010,03,19,04,05,3.40
2010,03,19,04,06,3.40
2010,03,19,04,07,3.30
2010,03,19,04,08,3.30
2010,03,19,04,09,3.30
2010,03,19,04,10,3.30
2010,03,19,04,11,3.30
2010,03,19,04,12,3.30
2010,03,19,04,13,3.20
2010,03,19,04,14,3.20
2010,03,19,04,15,3.20
2010,03,19,04,16,3.20
2010,03,19,04,17,3.20
2010,03,19,04,18,3.20
2010,03,19,04,19,3.10
2010,03,19,04,20,3.10
2010,03,19,04,21,3.10
2010,03,19,04,22,3.10
2010,03,19,04,23,3.10
2010,03,19,04,24,3.10
2010,03,19,04,25,3.10
2010,03,19,04,26,3.10
2010,03,19,04,27,3.10
2010,03,19,04,28,3.00
2010,03,19,04,29,3.00
2010,03,19,04,30,3.00
2010,03,19,04,31,3.00
2010,03,19,04,32,3.00
2010,03,19,04,33,3.00
2010,03,19,04,34,2.90
2010,03,19,04,35,2.90
2010,03,19,04,36,2.90
2010,03,19,04,37,2.90
2010,03,19,04,38,2.90
2010,03,19,04,39,2.90
2010,03,19,04,40,2.80
2010,03,19,04,41,2.80
2010,03,19,04,42,2.80
2010,03,19,04,43,2.80
2010,03,19,04,44,2.70
2010,03,19,04,45,2.70
2010,03,19,04,46,2.70
2010,03,19,04,47,2.60
2010,03,19,04,48,2.60
2010,03,19,04,49,2.60
2010,03,19,04,50,2.50
2010,03,19,04,51,2.50
2010,03,19,04,52,2.50
2010,03,19,04,53,2.40
2010,03,19,04,54,2.40
2010,03,19,04,55,2.40
2010,03,19,04,56,2.40
2010,03,19,04,57,2.30
2010,03,19,04,58,2.30
2010,03,19,04,59,2.30
2010,03,19,05,00,2.40
2010,03,19,05,01,2.40
2010,03,19,05,02,2.40
2010,03,19,05,03,2.50
2010,03,19,05,04,2.50
2010,03,19,05,05,2.50
2010,03,19,05,06,2.60
2010,03,19,05,07,2.60
2010,03,19,05,08,2.50
2010,03,19,05,09,2.50
2010,03,19,05,10,2.50
2010,03,19,05,11,2.50
2010,03,19,05,12,2.40
2010,03,19,05,13,2.40
2010,03,19,05,14,2.40
2010,03,19,05,15,2.40
2010,03,19,05,16,2.30
2010,03,19,05,17,2.30
2010,03,19,05,18,2.30
2010,03,19,05,19,2.20
2010,03,19,05,20,2.20
2010,03,19,05,21,2.20
2010,03,19,05,22,2.20
2010,03,19,05,23,2.10
2010,03,19,05,24,2.10
2010,03,19,05,25,2.10
2010,03,19,05,26,2.10
2010,03,19,05,27,2.00
2010,03,19,05,28,2.00
2010,03,19,05,29,2.00
2010,03,19,05,30,2.00
2010,03,19,05,31,1.90
2010,03,19,05,32,1.90
2010,03,19,05,33,1.90
2010,03,19,05,34,1.90
2010,03,19,05,35,1.90
2010,03,19,05,36,1.90
2010,03,19,05,37,1.90
2010,03,19,05,38,1.90
2010,03,19,05,39,1.80
2010,03,19,05,40,1.80
2010,03,19,05,41,1.80
2010,03,19,05,42,1.80
2010,03,19,05,43,1.80
2010,03,19,05,44,1.80
2010,03,19,05,45,1.70
2010,03,19,05,46,1.70
2010,03,19,05,47,1.70
2010,03,19,05,48,1.60
2010,03,19,05,49,1.60
2010,03,19,05,50,1.60
2010,03,19,05,51,1.60
2010,03,19,05,52,1.60
2010,03,19,05,53,1.70
2010,03,19,05,54,1.70
2010,03,19,05,55,1.70
2010,03,19,05,56,1.70
2010,03,19,05,57,1.70
2010,03,19,05,58,1.80
2010,03,19,05,59,1.80
2010,03,19,06,00,1.80
2010,03,19,06,01,1.80
2010,03,19,06,02,1.80
2010,03,19,06,03,1.90
2010,03,19,06,04,1.90
2010,03,19,06,05,1.90
2010,03,19,06,06,1.90
2010,03,19,06,07,1.90
2010,03,19,06,08,1.90
2010,03,19,06,09,1.90
2010,03,19,06,10,1.90
2010,03,19,06,11,1.90
2010,03,19,06,12,1.90
2010,03,19,06,13,2.00
2010,03,19,06,14,2.00
2010,03,19,06,15,2.00
2010,03,19,06,16,2.00
2010,03,19,06,17,1.90
2010,03,19,06,18,1.90
2010,03,19,06,19,1.90
2010,03,19,06,20,1.90
2010,03,19,06,21,1.90
2010,03,19,06,22,1.80
2010,03,19,06,23,1.80
2010,03,19,06,24,1.80
2010,03,19,06,25,1.70
2010,03,19,06,26,1.70
2010,03,19,06,27,1.70
2010,03,19,06,28,1.70
2010,03,19,06,29,1.60
2010,03,19,06,30,1.60
2010,03,19,06,31,1.60
2010,03,19,06,32,1.60
2010,03,19,06,33,1.60
2010,03,19,06,34,1.60
2010,03,19,06,35,1.50
2010,03,19,06,36,1.50
2010,03,19,06,37,1.50
2010,03,19,06,38,1.50
2010,03,19,06,39,1.50
2010,03,19,06,40,1.50
2010,03,19,06,41,1.50
2010,03,19,06,42,1.50
2010,03,19,06,43,1.50
2010,03,19,06,44,1.50
2010,03,19,06,45,1.50
2010,03,19,06,46,1.50
2010,03,19,06,47,1.50
2010,03,19,06,48,1.50
2010,03,19,06,49,1.50
2010,03,19,06,50,1.40
2010,03,19,06,51,1.40
2010,03,19,06,52,1.30
2010,03,19,06,53,1.30
2010,03,19,06,54,1.30
2010,03,19,06,55,1.30
2010,03,19,06,56,1.30
2010,03,19,06,57,1.30
2010,03,19,06,58,1.20
2010,03,19,06,59,1.20
2010,03,19,07,00,1.20
2010,03,19,07,01,1.20
2010,03,19,07,02,1.20
2010,03,19,07,03,1.20
2010,03,19,07,04,1.20
2010,03,19,07,05,1.20
2010,03,19,07,06,1.30
2010,03,19,07,07,1.30
2010,03,19,07,08,1.30
2010,03,19,07,09,1.30
2010,03,19,07,10,1.30
2010,03,19,07,11,1.30
2010,03,19,07,12,1.30
2010,03,19,07,13,1.30
2010,03,19,07,14,1.30
2010,03,19,07,15,1.30
2010,03,19,07,16,1.30
2010,03,19,07,17,1.30
2010,03,19,07,18,1.30
2010,03,19,07,19,1.30
2010,03,19,07,20,1.30
2010,03,19,07,21,1.30
2010,03,19,07,22,1.30
2010,03,19,07,23,1.30
2010,03,19,07,24,1.30
2010,03,19,07,25,1.30
2010,03,19,07,26,1.30
2010,03,19,07,27,1.20
2010,03,19,07,28,1.20
2010,03,19,07,29,1.20
2010,03,19,07,30,1.20
2010,03,19,07,31,1.20
2010,03,19,07,32,1.20
2010,03,19,07,33,1.20
2010,03,19,07,34,1.10
2010,03,19,07,35,1.10
2010,03,19,07,36,1.20
2010,03,19,07,37,1.20
2010,03,19,07,38,1.30
2010,03,19,07,39,1.30
2010,03,19,07,40,1.30
2010,03,19,07,41,1.30
2010,03,19,07,42,1.30
2010,03,19,07,43,1.30
2010,03,19,07,44,1.30
2010,03,19,07,45,1.30
2010,03,19,07,46,1.30
2010,03,19,07,47,1.30
2010,03,19,07,48,1.30
2010,03,19,07,49,1.40
2010,03,19,07,50,1.40
2010,03,19,07,51,1.40
2010,03,19,07,52,1.50
2010,03,19,07,53,1.50
2010,03,19,07,54,1.60
2010,03,19,07,55,1.60
2010,03,19,07,56,1.60
2010,03,19,07,57,1.60
2010,03,19,07,58,1.60
2010,03,19,07,59,1.60
2010,03,19,08,00,1.50
2010,03,19,08,01,1.50
2010,03,19,08,02,1.50
2010,03,19,08,03,1.50
2010,03,19,08,04,1.50
2010,03,19,08,05,1.50
2010,03,19,08,06,1.60
2010,03,19,08,07,1.60
2010,03,19,08,08,1.70
2010,03,19,08,09,1.70
2010,03,19,08,10,1.80
2010,03,19,08,11,1.80
2010,03,19,08,12,1.90
2010,03,19,08,13,1.90
2010,03,19,08,14,2.00
2010,03,19,08,15,2.00
2010,03,19,08,16,2.10
2010,03,19,08,17,2.10
2010,03,19,08,18,2.10
2010,03,19,08,19,2.10
2010,03,19,08,20,2.10
2010,03,19,08,21,2.20
2010,03,19,08,22,2.20
2010,03,19,08,23,2.10
2010,03,19,08,24,2.10
2010,03,19,08,25,2.10
2010,03,19,08,26,2.10
2010,03,19,08,27,2.00
2010,03,19,08,28,2.00
2010,03,19,08,29,2.00
2010,03,19,08,30,1.90
2010,03,19,08,31,1.90
2010,03,19,08,32,1.90
2010,03,19,08,33,2.00
2010,03,19,08,34,2.00
2010,03,19,08,35,2.00
2010,03,19,08,36,2.10
2010,03,19,08,37,2.10
2010,03,19,08,38,2.20
2010,03,19,08,39,2.30
2010,03,19,08,40,2.40
2010,03,19,08,41,2.50
2010,03,19,08,42,2.60
2010,03,19,08,43,2.70
2010,03,19,08,44,2.80
2010,03,19,08,45,2.80
2010,03,19,08,46,2.90
2010,03,19,08,47,3.00
2010,03,19,08,48,3.10
2010,03,19,08,49,3.20
2010,03,19,08,50,3.40
2010,03,19,08,51,3.50
2010,03,19,08,52,3.60
2010,03,19,08,53,3.80
2010,03,19,08,54,3.90
2010,03,19,08,55,4.00
2010,03,19,08,56,4.10
2010,03,19,08,57,4.20
2010,03,19,08,58,4.30
2010,03,19,08,59,4.30
2010,03,19,09,00,4.50
2010,03,19,09,01,4.50
2010,03,19,09,02,4.70
2010,03,19,09,03,4.80
2010,03,19,09,04,4.90
2010,03,19,09,05,5.00
2010,03,19,09,06,5.20
2010,03,19,09,07,5.30
2010,03,19,09,08,5.50
2010,03,19,09,09,5.60
2010,03,19,09,10,5.70
2010,03,19,09,11,5.80
2010,03,19,09,12,6.00
2010,03,19,09,13,6.10
2010,03,19,09,14,6.20
2010,03,19,09,15,6.20
2010,03,19,09,16,6.30
2010,03,19,09,17,6.40
2010,03,19,09,18,6.50
2010,03,19,09,19,6.60
2010,03,19,09,20,6.70
2010,03,19,09,21,6.80
2010,03,19,09,22,6.90
2010,03,19,09,23,7.00
2010,03,19,09,24,7.10
2010,03,19,09,25,7.20
2010,03,19,09,26,7.20
2010,03,19,09,27,7.20
2010,03,19,09,28,7.20
2010,03,19,09,29,7.20
2010,03,19,09,30,7.20
2010,03,19,09,31,7.20
2010,03,19,09,32,7.10
2010,03,19,09,33,7.00
2010,03,19,09,34,6.90
2010,03,19,09,35,6.90
2010,03,19,09,36,6.80
2010,03,19,09,37,6.80
2010,03,19,09,38,6.80
2010,03,19,09,39,6.80
2010,03,19,09,40,6.80
2010,03,19,09,41,6.80
2010,03,19,09,42,6.80
2010,03,19,09,43,6.80
2010,03,19,09,44,6.80
2010,03,19,09,45,6.80
2010,03,19,09,46,6.80
2010,03,19,09,47,6.80
2010,03,19,09,48,6.70
2010,03,19,09,49,6.70
2010,03,19,09,50,6.80
2010,03,19,09,51,6.90
2010,03,19,09,52,6.90
2010,03,19,09,53,7.00
2010,03,19,09,54,7.10
2010,03,19,09,55,7.20
2010,03,19,09,56,7.20
2010,03,19,09,57,7.20
2010,03,19,09,58,7.30
2010,03,19,09,59,7.30
2010,03,19,10,00,7.30
2010,03,19,10,01,7.30
2010,03,19,10,02,7.20
2010,03,19,10,03,7.20
2010,03,19,10,04,7.20
2010,03,19,10,05,7.30
2010,03,19,10,06,7.30
2010,03,19,10,07,7.30
2010,03,19,10,08,7.40
2010,03,19,10,09,7.40
2010,03,19,10,10,7.50
2010,03,19,10,11,7.60
2010,03,19,10,12,7.60
2010,03,19,10,13,7.60
2010,03,19,10,14,7.70
2010,03,19,10,15,7.70
2010,03,19,10,16,7.70
2010,03,19,10,17,7.80
2010,03,19,10,18,7.90
2010,03,19,10,19,7.90
2010,03,19,10,20,7.90
2010,03,19,10,21,7.90
2010,03,19,10,22,7.80
2010,03,19,10,23,7.90
2010,03,19,10,24,7.90
2010,03,19,10,25,7.90
2010,03,19,10,26,7.90
2010,03,19,10,27,7.90
2010,03,19,10,28,7.80
2010,03,19,10,29,7.80
2010,03,19,10,30,7.80
2010,03,19,10,31,7.70
2010,03,19,10,32,7.70
2010,03,19,10,33,7.70
2010,03,19,10,34,7.70
2010,03,19,10,35,7.80
2010,03,19,10,36,7.90
2010,03,19,10,37,8.00
2010,03,19,10,38,8.10
2010,03,19,10,39,8.20
2010,03,19,10,40,8.20
2010,03,19,10,41,8.20
2010,03,19,10,42,8.20
2010,03,19,10,43,8.20
2010,03,19,10,44,8.20
2010,03,19,10,45,8.10
2010,03,19,10,46,8.10
2010,03,19,10,47,8.10
2010,03,19,10,48,8.10
2010,03,19,10,49,8.10
2010,03,19,10,50,8.10
2010,03,19,10,51,8.10
2010,03,19,10,52,8.20
2010,03,19,10,53,8.30
2010,03,19,10,54,8.40
2010,03,19,10,55,8.40
2010,03,19,10,56,8.30
2010,03,19,10,57,8.30
2010,03,19,10,58,8.20
2010,03,19,10,59,8.20
2010,03,19,11,00,8.20
2010,03,19,11,01,8.20
2010,03,19,11,02,8.20
2010,03,19,11,03,8.10
2010,03,19,11,04,8.10
2010,03,19,11,05,8.10
2010,03,19,11,06,8.10
2010,03,19,11,07,8.00
2010,03,19,11,08,8.00
2010,03,19,11,09,8.00
2010,03,19,11,10,8.00
2010,03,19,11,11,8.00
2010,03,19,11,12,7.90
2010,03,19,11,13,7.90
2010,03,19,11,14,7.90
2010,03,19,11,15,7.90
2010,03,19,11,16,7.90
2010,03,19,11,17,7.90
2010,03,19,11,18,7.90
2010,03,19,11,19,7.90
2010,03,19,11,20,7.90
2010,03,19,11,21,7.90
2010,03,19,11,22,7.90
2010,03,19,11,23,7.90
2010,03,19,11,24,8.00
2010,03,19,11,25,8.00
2010,03,19,11,26,8.10
2010,03,19,11,27,8.20
2010,03,19,11,28,8.20
2010,03,19,11,29,8.20
2010,03,19,11,30,8.20
2010,03,19,11,31,8.20
2010,03,19,11,32,8.20
2010,03,19,11,33,8.20
2010,03,19,11,34,8.20
2010,03,19,11,35,8.20
2010,03,19,11,36,8.20
2010,03,19,11,37,8.20
2010,03,19,11,38,8.20
2010,03,19,11,39,8.10
2010,03,19,11,40,8.10
2010,03,19,11,41,8.00
2010,03,19,11,42,8.00
2010,03,19,11,43,8.00
2010,03,19,11,44,7.90
2010,03,19,11,45,8.00
2010,03,19,11,46,8.00
2010,03,19,11,47,8.00
2010,03,19,11,48,8.00
2010,03,19,11,49,8.10
2010,03,19,11,50,8.10
2010,03,19,11,51,8.10
2010,03,19,11,52,8.20
2010,03,19,11,53,8.20
2010,03,19,11,54,8.30
2010,03,19,11,55,8.30
2010,03,19,11,56,8.30
2010,03,19,11,57,8.30
2010,03,19,11,58,8.30
2010,03,19,11,59,8.30
2010,03,19,12,00,8.30
2010,03,19,12,01,8.30
2010,03,19,12,02,8.30
2010,03,19,12,03,8.20
2010,03,19,12,04,8.20
2010,03,19,12,05,8.10
2010,03,19,12,06,8.10
2010,03,19,12,07,8.10
2010,03,19,12,08,8.10
2010,03,19,12,09,8.00
2010,03,19,12,10,8.10
2010,03,19,12,11,8.10
2010,03,19,12,12,8.10
2010,03,19,12,13,8.20
2010,03,19,12,14,8.20
2010,03,19,12,15,8.20
2010,03,19,12,16,8.30
2010,03,19,12,17,8.30
2010,03,19,12,18,8.30
2010,03,19,12,19,8.30
2010,03,19,12,20,8.40
2010,03,19,12,21,8.50
2010,03,19,12,22,8.50
2010,03,19,12,23,8.50
2010,03,19,12,24,8.50
2010,03,19,12,25,8.50
2010,03,19,12,26,8.50
2010,03,19,12,27,8.60
2010,03,19,12,28,8.60
2010,03,19,12,29,8.60
2010,03,19,12,30,8.60
2010,03,19,12,31,8.60
2010,03,19,12,32,8.60
2010,03,19,12,33,8.50
2010,03,19,12,34,8.50
2010,03,19,12,35,8.50
2010,03,19,12,36,8.50
2010,03,19,12,37,8.50
2010,03,19,12,38,8.50
2010,03,19,12,39,8.50
2010,03,19,12,40,8.50
2010,03,19,12,41,8.60
2010,03,19,12,42,8.60
2010,03,19,12,43,8.60
2010,03,19,12,44,8.50
2010,03,19,12,45,8.50
2010,03,19,12,46,8.40
2010,03,19,12,47,8.40
2010,03,19,12,48,8.40
2010,03,19,12,49,8.40
2010,03,19,12,50,8.40
2010,03,19,12,51,8.50
2010,03,19,12,52,8.50
2010,03,19,12,53,8.60
2010,03,19,12,54,8.60
2010,03,19,12,55,8.60
2010,03,19,12,56,8.60
2010,03,19,12,57,8.70
2010,03,19,12,58,8.70
2010,03,19,12,59,8.70
2010,03,19,13,00,8.80
2010,03,19,13,01,8.80
2010,03,19,13,02,8.80
2010,03,19,13,03,8.90
2010,03,19,13,04,8.90
2010,03,19,13,05,8.90
2010,03,19,13,06,9.00
2010,03,19,13,07,9.00
2010,03,19,13,08,9.00
2010,03,19,13,09,9.10
2010,03,19,13,10,9.10
2010,03,19,13,11,9.10
2010,03,19,13,12,9.20
2010,03,19,13,13,9.30
2010,03,19,13,14,9.30
2010,03,19,13,15,9.30
2010,03,19,13,16,9.30
2010,03,19,13,17,9.20
2010,03,19,13,18,9.20
2010,03,19,13,19,9.20
2010,03,19,13,20,9.20
2010,03,19,13,21,9.20
2010,03,19,13,22,9.30
2010,03,19,13,23,9.30
2010,03,19,13,24,9.30
2010,03,19,13,25,9.40
2010,03,19,13,26,9.40
2010,03,19,13,27,9.40
2010,03,19,13,28,9.40
2010,03,19,13,29,9.40
2010,03,19,13,30,9.30
2010,03,19,13,31,9.30
2010,03,19,13,32,9.30
2010,03,19,13,33,9.20
2010,03,19,13,34,9.10
2010,03,19,13,35,9.10
2010,03,19,13,36,9.10
2010,03,19,13,37,9.10
2010,03,19,13,38,9.10
2010,03,19,13,39,9.10
2010,03,19,13,40,9.20
2010,03,19,13,41,9.30
2010,03,19,13,42,9.40
2010,03,19,13,43,9.40
2010,03,19,13,44,9.40
2010,03,19,13,45,9.30
2010,03,19,13,46,9.30
2010,03,19,13,47,9.20
2010,03,19,13,48,9.20
2010,03,19,13,49,9.20
2010,03,19,13,50,9.20
2010,03,19,13,51,9.20
2010,03,19,13,52,9.20
2010,03,19,13,53,9.20
2010,03,19,13,54,9.20
2010,03,19,13,55,9.20
2010,03,19,13,56,9.20
2010,03,19,13,57,9.10
2010,03,19,13,58,9.10
2010,03,19,13,59,9.10
2010,03,19,14,00,9.10
2010,03,19,14,01,9.10
2010,03,19,14,02,9.10
2010,03,19,14,03,9.20
2010,03,19,14,04,9.30
2010,03,19,14,05,9.30
2010,03,19,14,06,9.20
2010,03,19,14,07,9.20
2010,03,19,14,08,9.20
2010,03,19,14,09,9.20
2010,03,19,14,10,9.20
2010,03,19,14,11,9.30
2010,03,19,14,12,9.40
2010,03,19,14,13,9.50
2010,03,19,14,14,9.60
2010,03,19,14,15,9.60
2010,03,19,14,16,9.60
2010,03,19,14,17,9.60
2010,03,19,14,18,9.60
2010,03,19,14,19,9.60
2010,03,19,14,20,9.60
2010,03,19,14,21,9.60
2010,03,19,14,22,9.60
2010,03,19,14,23,9.60
2010,03,19,14,24,9.60
2010,03,19,14,25,9.60
2010,03,19,14,26,9.60
2010,03,19,14,27,9.60
2010,03,19,14,28,9.60
2010,03,19,14,29,9.50
2010,03,19,14,30,9.50
2010,03,19,14,31,9.40
2010,03,19,14,32,9.40
2010,03,19,14,33,9.40
2010,03,19,14,34,9.40
2010,03,19,14,35,9.40
2010,03,19,14,36,9.40
2010,03,19,14,37,9.40
2010,03,19,14,38,9.50
2010,03,19,14,39,9.50
2010,03,19,14,40,9.60
2010,03,19,14,41,9.60
2010,03,19,14,42,9.60
2010,03,19,14,43,9.70
2010,03,19,14,44,9.70
2010,03,19,14,45,9.80
2010,03,19,14,46,9.80
2010,03,19,14,47,9.80
2010,03,19,14,48,9.80
2010,03,19,14,49,9.90
2010,03,19,14,50,9.90
2010,03,19,14,51,9.90
2010,03,19,14,52,9.90
2010,03,19,14,53,9.90
2010,03,19,14,54,10.00
2010,03,19,14,55,10.00
2010,03,19,14,56,10.10
2010,03,19,14,57,10.20
2010,03,19,14,58,10.20
2010,03,19,14,59,10.30
2010,03,19,15,00,10.30
2010,03,19,15,01,10.30
2010,03,19,15,02,10.30
2010,03,19,15,03,10.20
2010,03,19,15,04,10.20
2010,03,19,15,05,10.30
2010,03,19,15,06,10.20
2010,03,19,15,07,10.20
2010,03,19,15,08,10.20
2010,03,19,15,09,10.20
2010,03,19,15,10,10.10
2010,03,19,15,11,10.10
2010,03,19,15,12,10.10
2010,03,19,15,13,10.10
2010,03,19,15,14,10.10
2010,03,19,15,15,10.10
2010,03,19,15,16,10.10
2010,03,19,15,17,10.10
2010,03,19,15,18,10.10
2010,03,19,15,19,10.10
2010,03,19,15,20,10.10
2010,03,19,15,21,10.10
2010,03,19,15,22,10.10
2010,03,19,15,23,10.20
2010,03,19,15,24,10.20
2010,03,19,15,25,10.20
2010,03,19,15,26,10.10
2010,03,19,15,27,10.10
2010,03,19,15,28,10.00
2010,03,19,15,29,9.90
2010,03,19,15,30,9.90
2010,03,19,15,31,9.90
2010,03,19,15,32,9.80
2010,03,19,15,33,9.80
2010,03,19,15,34,9.80
2010,03,19,15,35,9.70
2010,03,19,15,36,9.70
2010,03,19,15,37,9.70
2010,03,19,15,38,9.80
2010,03,19,15,39,9.80
2010,03,19,15,40,9.80
2010,03,19,15,41,9.90
2010,03,19,15,42,9.90
2010,03,19,15,43,10.00
2010,03,19,15,44,10.10
2010,03,19,15,45,10.10
2010,03,19,15,46,10.10
2010,03,19,15,47,10.10
2010,03,19,15,48,10.10
2010,03,19,15,49,10.10
2010,03,19,15,50,10.10
2010,03,19,15,51,10.20
2010,03,19,15,52,10.20
2010,03,19,15,53,10.20
2010,03,19,15,54,10.10
2010,03,19,15,55,10.00
2010,03,19,15,56,9.90
2010,03,19,15,57,9.90
2010,03,19,15,58,9.90
2010,03,19,15,59,9.90
2010,03,19,16,00,9.90
2010,03,19,16,01,9.90
2010,03,19,16,02,9.90
2010,03,19,16,03,9.90
2010,03,19,16,04,9.90
2010,03,19,16,05,9.90
2010,03,19,16,06,9.80
2010,03,19,16,07,9.80
2010,03,19,16,08,9.80
2010,03,19,16,09,9.80
2010,03,19,16,10,9.90
2010,03,19,16,11,9.90
2010,03,19,16,12,10.00
2010,03,19,16,13,10.00
2010,03,19,16,14,10.10
2010,03,19,16,15,10.10
2010,03,19,16,16,10.00
2010,03,19,16,17,10.00
2010,03,19,16,18,10.10
2010,03,19,16,19,10.00
2010,03,19,16,20,10.00
2010,03,19,16,21,9.90
2010,03,19,16,22,9.90
2010,03,19,16,23,9.90
2010,03,19,16,24,10.00
2010,03,19,16,25,10.00
2010,03,19,16,26,10.10
2010,03,19,16,27,10.10
2010,03,19,16,28,10.00
2010,03,19,16,29,10.00
2010,03,19,16,30,9.90
2010,03,19,16,31,9.90
2010,03,19,16,32,9.80
2010,03,19,16,33,9.80
2010,03,19,16,34,9.90
2010,03,19,16,35,9.90
2010,03,19,16,36,9.90
2010,03,19,16,37,10.00
2010,03,19,16,38,10.00
2010,03,19,16,39,10.00
2010,03,19,16,40,10.00
2010,03,19,16,41,9.90
2010,03,19,16,42,9.90
2010,03,19,16,43,9.80
2010,03,19,16,44,9.80
2010,03,19,16,45,9.80
2010,03,19,16,46,9.80
2010,03,19,16,47,9.80
2010,03,19,16,48,9.90
2010,03,19,16,49,9.90
2010,03,19,16,50,9.90
2010,03,19,16,51,9.90
2010,03,19,16,52,9.90
2010,03,19,16,53,9.90
2010,03,19,16,54,9.90
2010,03,19,16,55,9.90
2010,03,19,16,56,9.90
2010,03,19,16,57,9.90
2010,03,19,16,58,9.90
2010,03,19,16,59,9.90
2010,03,19,17,00,9.90
2010,03,19,17,01,9.90
2010,03,19,17,02,9.90
2010,03,19,17,03,9.90
2010,03,19,17,04,9.90
2010,03,19,17,05,10.00
2010,03,19,17,06,10.00
2010,03,19,17,07,10.00
2010,03,19,17,08,10.00
2010,03,19,17,09,9.90
2010,03,19,17,10,9.90
2010,03,19,17,11,9.80
2010,03,19,17,12,9.80
2010,03,19,17,13,9.70
2010,03,19,17,14,9.70
2010,03,19,17,15,9.70
2010,03,19,17,16,9.70
2010,03,19,17,17,9.70
2010,03,19,17,18,9.70
2010,03,19,17,19,9.70
2010,03,19,17,20,9.80
2010,03,19,17,21,9.80
2010,03,19,17,22,9.80
2010,03,19,17,23,9.80
2010,03,19,17,24,9.80
2010,03,19,17,25,9.80
2010,03,19,17,26,9.70
2010,03,19,17,27,9.70
2010,03,19,17,28,9.70
2010,03,19,17,29,9.70
2010,03,19,17,30,9.80
2010,03,19,17,31,9.80
2010,03,19,17,32,9.70
2010,03,19,17,33,9.70
2010,03,19,17,34,9.70
2010,03,19,17,35,9.70
2010,03,19,17,36,9.70
2010,03,19,17,37,9.70
2010,03,19,17,38,9.70
2010,03,19,17,39,9.70
2010,03,19,17,40,9.70
2010,03,19,17,41,9.70
2010,03,19,17,42,9.70
2010,03,19,17,43,9.60
2010,03,19,17,44,9.60
2010,03,19,17,45,9.60
2010,03,19,17,46,9.60
2010,03,19,17,47,9.60
2010,03,19,17,48,9.60
2010,03,19,17,49,9.60
2010,03,19,17,50,9.60
2010,03,19,17,51,9.60
2010,03,19,17,52,9.60
2010,03,19,17,53,9.50
2010,03,19,17,54,9.40
2010,03,19,17,55,9.40
2010,03,19,17,56,9.40
2010,03,19,17,57,9.30
2010,03,19,17,58,9.30
2010,03,19,17,59,9.30
2010,03,19,18,00,9.30
2010,03,19,18,01,9.30
2010,03,19,18,02,9.30
2010,03,19,18,03,9.30